This is the latest recevied weather packets stored in our database for station/object W5GMO. If no packets are shown the sender has not sent any weather packets the latest 10 day(s).
| Time | Temp. | Humidity | Pressure | Rain* | Wind** | Luminosity | Snow |
|---|---|---|---|---|---|---|---|
| 1788304069 | 33.89° C | 1% | 1013.8 hPa | 0 mm | - | 34 W/m² | - |
| 1788303768 | 33.89° C | 1% | 1014 hPa | 0 mm | - | 40 W/m² | - |
| 1788303464 | 33.89° C | 1% | 1013.9 hPa | 0 mm | - | 35 W/m² | - |
| 1788303158 | 33.89° C | 1% | 1014.1 hPa | 0 mm | - | 37 W/m² | - |
| 1788302854 | 33.89° C | 1% | 1013.9 hPa | 0 mm | - | 46 W/m² | - |
| 1788302550 | 33.89° C | 1% | 1014 hPa | 0 mm | - | 46 W/m² | - |
| 1788302246 | 33.89° C | 1% | 1013.9 hPa | 0 mm | - | 45 W/m² | - |
| 1788301940 | 34.44° C | 1% | 1013.9 hPa | 0 mm | - | 41 W/m² | - |
| 1788301637 | 34.44° C | 1% | 1014 hPa | 0 mm | - | 40 W/m² | - |
| 1788301333 | 34.44° C | 1% | 1014.1 hPa | 0 mm | - | 47 W/m² | - |
| 1788301028 | 34.44° C | 1% | 1014 hPa | 0 mm | - | 56 W/m² | - |
| 1788300724 | 34.44° C | 1% | 1014 hPa | 0 mm | - | 64 W/m² | - |
| 1788300423 | 35° C | 1% | 1013.9 hPa | 0 mm | - | 63 W/m² | - |
| 1788300124 | 35° C | 1% | 1014.1 hPa | 0 mm | - | 73 W/m² | - |
| 1788299822 | 35.56° C | 1% | 1014.2 hPa | 0 mm | - | 79 W/m² | - |
| 1788299522 | 35.56° C | 1% | 1014.1 hPa | 0 mm | - | 159 W/m² | - |
| 1788299220 | 35.56° C | 1% | 1014.4 hPa | 0 mm | - | 145 W/m² | - |
| 1788298914 | 35.56° C | 1% | 1014.2 hPa | 0 mm | - | 171 W/m² | - |
| 1788298608 | 35.56° C | 1% | 1014 hPa | 0 mm | - | 167 W/m² | - |
| 1788298303 | 35.56° C | 1% | 1014.1 hPa | 0 mm | - | 172 W/m² | - |
| 1788298003 | 36.11° C | 1% | 1014.2 hPa | 0 mm | - | 200 W/m² | - |
| 1788297699 | 36.11° C | 1% | 1014.1 hPa | 0 mm | - | 217 W/m² | - |
| 1788297393 | 36.11° C | 1% | 1014.2 hPa | 0 mm | - | 246 W/m² | - |
| 1788297091 | 36.67° C | 1% | 1014.2 hPa | 0 mm | - | 259 W/m² | - |
| 1788296786 | 36.67° C | 1% | 1014.2 hPa | 0 mm | - | 265 W/m² | - |
* Rain latest hour (hover to see other rain measurements)
** Current wind speed in m/s (hover to see current wind gust speed)